[[{"header":{"parameterUnit":"m.s-1","parameterCategory":1,"la1":30.2992,"la2":30.254,"lo1":-89.0895,"lo2":-89.0443,"dy":0.0025,"dx":0.0025,"nx":19,"ny":19,"refTime":"2026-04-15T03:00:00:Z","depth":0,"parameterNumber":2,"parameterNumberName":"U-component_of_WINDS"},"data":[0,0,0,-1.1312,-1.1313,-1.1327,-1.1327,-1.1354,-1.1354,0,0,0,0,0,0,0,0,0,0,0,-1.1311,-1.1311,-1.1312,-1.1313,-1.1327,-1.1327,-1.1354,-1.1354,0,0,0,0,0,0,0,0,0,0,0,-1.1311,-1.1311,-1.1311,-1.1313,-1.1327,-1.1327,-1.1353,-1.134,0,0,0,0,0,0,0,0,0,0,-1.1325,-1.1326,-1.1311,-1.1311,-1.1313,-1.1327,-1.1327,-1.134,-1.1341,-1.135,0,-1.1357,0,-1.1356,-1.1356,-1.1356,0,0,0,-1.1311,-1.1325,-1.1326,-1.1311,-1.1313,-1.1327,-1.132,-1.134,-1.1342,-1.1352,-1.1357,-1.1358,-1.1356,-1.1356,-1.1356,-1.1409,-1.141,0,0,-1.1311,-1.1315,-1.1325,-1.1327,-1.1323,-1.132,-1.1321,-1.1341,-1.1348,-1.1357,-1.1358,-1.1357,-1.1356,-1.1357,-1.1409,-1.1409,0,0,0,-1.1309,-1.1315,-1.1315,-1.1326,-1.1328,-1.132,-1.1321,-1.1347,-1.1346,-1.1359,-1.1357,-1.1357,-1.1357,-1.1409,-1.1409,-1.1429,0,0,0,-1.1309,-1.1314,-1.1315,-1.1318,-1.1328,-1.1337,-1.1326,-1.1345,-1.1347,-1.1357,-1.1357,-1.1357,-1.1408,-1.1409,-1.1428,-1.1438,0,0,0,-1.1309,-1.1314,-1.1317,-1.1319,-1.1325,-1.1337,-1.1337,-1.1345,-1.1346,-1.1356,-1.1357,-1.1408,-1.1409,-1.1427,-1.1436,-1.1454,0,0,0,-1.1311,-1.1335,-1.1317,-1.1343,-1.1325,-1.1348,-1.1337,-1.1355,-1.1366,-1.1357,-1.1408,-1.1409,-1.1426,-1.1435,-1.1452,-1.1469,-1.1477,0,0,-1.1343,-1.1339,-1.1353,-1.1338,-1.1366,-1.1346,-1.1378,-1.1384,-1.1381,-1.1401,-1.1402,-1.1428,-1.1436,-1.1453,-1.1516,-1.1522,0,0,0,-1.1365,-1.1376,-1.1382,-1.1392,-1.1397,-1.1403,-1.1403,-1.1406,-1.1422,-1.1391,-1.1439,-1.1444,-1.1454,-1.1462,-1.1467,-1.1476,-1.1413,-1.1413,-1.1413,-1.1417,-1.1412,-1.1437,-1.1434,-1.1445,-1.1446,-1.1454,-1.1459,-1.1451,-1.1463,-1.1468,-1.1507,-1.1516,-1.152,-1.1529,-1.1477,-1.1477,-1.1477,-1.1477,-1.1464,-1.1479,-1.1469,-1.1489,-1.1485,-1.1502,-1.1506,-1.15,-1.1518,-1.1502,-1.151,-1.1493,-1.1526,-1.1535,-1.1478,-1.1478,-1.1478,-1.1478,-1.1478,-1.1497,-1.1504,-1.1506,-1.1521,-1.1534,-1.1532,-1.1549,-1.1545,-1.1542,-1.155,-1.1557,-1.1556,-1.1556,-1.1554,-1.1554,-1.1554,-1.1554,-1.1554,-1.1554,-1.1531,-1.1533,-1.1547,-1.1555,-1.1562,-1.1571,-1.1575,-1.1582,-1.159,-1.1586,-1.1586,-1.1578,-1.153,-1.1518,-1.1556,-1.1556,-1.1556,-1.1555,-1.1555,-1.158,-1.1569,-1.159,-1.1597,-1.1608,-1.1622,-1.1617,-1.1633,-1.1639,-1.1649,-1.164,-1.1605,-1.16,-1.1596,-1.1586,-1.164,-1.164,-1.164,-1.164,-1.1609,-1.1606,-1.1628,-1.1639,-1.1651,-1.1649,-1.1677,-1.1681,-1.1684,-1.1688,-1.168,-1.1667,-1.1663,-1.166,-1.1655,-1.1646,-1.1713,-1.1713,-1.1713,-1.1639,-1.1638,-1.166,-1.1661,-1.167,-1.1678,-1.1705,-1.1721,-1.1722,-1.1716,-1.1691,-1.1688,-1.1667,-1.166,-1.1652,-1.1644,-1.1627,0,0]},{"header":{"parameterUnit":"m.s-1","parameterCategory":1,"la1":30.2992,"la2":30.254,"lo1":-89.0895,"lo2":-89.0443,"dy":0.0025,"dx":0.0025,"nx":19,"ny":19,"refTime":"2026-04-15T03:00:00:Z","depth":0,"parameterNumber":3,"parameterNumberName":"V-component_of_WINDS"},"data":[0,0,0,3.9512,3.951,3.9392,3.9392,3.9231,3.9229,0,0,0,0,0,0,0,0,0,0,0,3.9544,3.9543,3.9513,3.951,3.9392,3.9392,3.9231,3.9229,0,0,0,0,0,0,0,0,0,0,0,3.9544,3.9543,3.9542,3.9509,3.9392,3.9392,3.9231,3.9323,0,0,0,0,0,0,0,0,0,0,3.9438,3.9465,3.9543,3.9542,3.9508,3.9393,3.9392,3.9327,3.9317,3.9281,0,3.925,0,3.9238,3.9218,3.9218,0,0,0,3.9511,3.9474,3.9446,3.9541,3.9507,3.9393,3.9446,3.9322,3.931,3.9267,3.9248,3.9242,3.9235,3.9217,3.9216,3.901,3.9009,0,0,3.9517,3.952,3.9454,3.9438,3.946,3.9449,3.9442,3.9315,3.9293,3.9247,3.9238,3.9232,3.9216,3.9215,3.9011,3.901,0,0,0,3.9535,3.9524,3.95,3.9445,3.9425,3.9446,3.9437,3.9298,3.929,3.9237,3.923,3.9215,3.9213,3.9012,3.9011,3.8964,0,0,0,3.9539,3.9535,3.9502,3.9503,3.9427,3.9361,3.9424,3.9299,3.9285,3.9231,3.9215,3.9211,3.9013,3.9011,3.8968,3.894,0,0,0,3.9552,3.9536,3.9519,3.9503,3.9453,3.9363,3.9347,3.9296,3.9281,3.9217,3.9211,3.9014,3.9012,3.8971,3.8946,3.8887,0,0,0,3.9566,3.9477,3.9518,3.9415,3.9454,3.9337,3.9348,3.9259,3.92,3.9214,3.9013,3.9011,3.8972,3.8949,3.8891,3.8838,3.8817,0,0,3.9454,3.9463,3.9403,3.9437,3.9313,3.9354,3.9222,3.9163,3.9152,3.9057,3.9052,3.8967,3.8946,3.8888,3.8699,3.8682,0,0,0,3.9368,3.9324,3.9291,3.9237,3.9192,3.9151,3.9113,3.9091,3.9011,3.9105,3.893,3.8918,3.8884,3.8858,3.8844,3.8813,3.9,3.9,3.9,3.921,3.9206,3.9105,3.9087,3.9034,3.8997,3.8953,3.8917,3.8924,3.8883,3.8854,3.874,3.8711,3.87,3.8668,3.8827,3.8827,3.8827,3.8826,3.9045,3.8982,3.8999,3.8908,3.8902,3.8824,3.8785,3.8794,3.8718,3.8761,3.873,3.8777,3.8682,3.8654,3.8823,3.8823,3.8824,3.8824,3.8825,3.894,3.8909,3.8888,3.8811,3.8751,3.8735,3.8663,3.866,3.8656,3.8626,3.8595,3.8596,3.8595,3.8612,3.8612,3.8611,3.8611,3.8611,3.861,3.8839,3.8817,3.8758,3.8707,3.8673,3.8627,3.8591,3.8556,3.8516,3.8519,3.8518,3.8529,3.8675,3.871,3.8604,3.8605,3.8606,3.8607,3.8607,3.867,3.8709,3.8619,3.8585,3.8524,3.8465,3.8465,3.8394,3.8364,3.8329,3.8348,3.8456,3.8463,3.8474,3.8504,3.835,3.835,3.835,3.835,3.858,3.8586,3.8494,3.8441,3.8387,3.8379,3.8274,3.8246,3.8221,3.8202,3.8225,3.8264,3.8276,3.8276,3.8291,3.8319,3.8121,3.8121,3.8121,3.8475,3.8476,3.8389,3.8371,3.8324,3.8283,3.8185,3.812,3.81,3.8112,3.8187,3.8197,3.8261,3.8282,3.8293,3.8317,3.8367,0,0]}]]